Time,TemperatureF,DewpointF,PressureIn,WindDirection,WindDirectionDegrees,WindSpeedMPH,WindSpeedGustMPH,Humidity,HourlyPrecipIn,Conditions,Clouds,dailyrainin,SolarRadiationWatts/m^2,SoftwareType,DateUTC
2013-09-17 00:13:00,52.3,49.0,30.29,NNE,31,2.0,-999.0,87,-99.99,,,0.00,0,weatherlink.com 1.10,2013-09-17 04:13:00,
2013-09-17 00:28:00,51.8,48.0,30.30,NE,45,1.0,-999.0,88,-99.99,,,0.00,0,weatherlink.com 1.10,2013-09-17 04:28:00,
2013-09-17 00:43:00,51.3,48.0,30.30,NE,43,1.0,-999.0,89,-99.99,,,0.00,0,weatherlink.com 1.10,2013-09-17 04:43:00,
2013-09-17 00:58:00,50.8,48.0,30.30,NE,51,2.0,-999.0,89,-99.99,,,0.00,0,weatherlink.com 1.10,2013-09-17 04:58:00,
2013-09-17 01:13:00,50.4,48.0,30.30,NNE,19,2.0,-999.0,90,-99.99,,,0.00,0,weatherlink.com 1.10,2013-09-17 05:13:00,
2013-09-17 01:28:00,50.0,47.0,30.30,NNE,24,4.0,-999.0,90,-99.99,,,0.00,0,weatherlink.com 1.10,2013-09-17 05:28:00,
2013-09-17 01:43:00,49.8,47.0,30.31,NNE,33,3.0,-999.0,90,-99.99,,,0.00,0,weatherlink.com 1.10,2013-09-17 05:43:00,
2013-09-17 01:58:00,49.3,47.0,30.31,NE,35,3.0,-999.0,90,-99.99,,,0.00,0,weatherlink.com 1.10,2013-09-17 05:58:00,
2013-09-17 02:13:00,49.1,47.0,30.32,NNE,32,2.0,-999.0,91,-99.99,,,0.00,0,weatherlink.com 1.10,2013-09-17 06:13:00,
2013-09-17 02:28:00,49.0,47.0,30.32,NNE,32,0.0,-999.0,91,-99.99,,,0.00,0,weatherlink.com 1.10,2013-09-17 06:28:00,
2013-09-17 02:43:00,48.7,46.0,30.32,NE,43,0.0,-999.0,91,-99.99,,,0.00,0,weatherlink.com 1.10,2013-09-17 06:43:00,
2013-09-17 02:58:00,48.7,46.0,30.32,ENE,66,3.0,-999.0,91,-99.99,,,0.00,0,weatherlink.com 1.10,2013-09-17 06:58:00,
2013-09-17 03:13:00,48.8,46.0,30.32,ENE,58,2.0,-999.0,91,-99.99,,,0.00,0,weatherlink.com 1.10,2013-09-17 07:13:00,
2013-09-17 03:28:00,48.6,46.0,30.32,ENE,59,0.0,-999.0,91,-99.99,,,0.00,0,weatherlink.com 1.10,2013-09-17 07:28:00,
2013-09-17 03:43:00,48.4,46.0,30.32,NE,43,0.0,-999.0,92,-99.99,,,0.00,0,weatherlink.com 1.10,2013-09-17 07:43:00,
2013-09-17 03:58:00,48.3,46.0,30.32,NE,46,0.0,-999.0,92,-99.99,,,0.00,0,weatherlink.com 1.10,2013-09-17 07:58:00,
2013-09-17 04:13:00,48.2,46.0,30.32,NE,54,1.0,-999.0,92,-99.99,,,0.00,0,weatherlink.com 1.10,2013-09-17 08:13:00,
2013-09-17 04:28:00,48.1,46.0,30.32,ENE,57,1.0,-999.0,92,-99.99,,,0.00,0,weatherlink.com 1.10,2013-09-17 08:28:00,
2013-09-17 04:43:00,47.9,46.0,30.32,NE,44,1.0,-999.0,92,-99.99,,,0.00,0,weatherlink.com 1.10,2013-09-17 08:43:00,
2013-09-17 04:58:00,47.6,46.0,30.32,NNE,33,2.0,-999.0,93,-99.99,,,0.00,0,weatherlink.com 1.10,2013-09-17 08:58:00,
2013-09-17 05:13:00,47.5,46.0,30.32,ENE,70,0.0,-999.0,93,-99.99,,,0.00,0,weatherlink.com 1.10,2013-09-17 09:13:00,
2013-09-17 05:28:00,47.2,45.0,30.32,NNE,29,1.0,-999.0,93,-99.99,,,0.00,0,weatherlink.com 1.10,2013-09-17 09:28:00,
2013-09-17 05:43:00,47.0,45.0,30.31,NE,40,3.0,-999.0,93,-99.99,,,0.00,0,weatherlink.com 1.10,2013-09-17 09:43:00,
2013-09-17 05:58:00,46.8,45.0,30.32,ENE,58,0.0,-999.0,94,-99.99,,,0.00,0,weatherlink.com 1.10,2013-09-17 09:58:00,
2013-09-17 06:13:00,46.7,45.0,30.32,NNE,27,2.0,-999.0,94,-99.99,,,0.00,0,weatherlink.com 1.10,2013-09-17 10:13:00,
2013-09-17 06:28:00,46.4,45.0,30.32,NE,50,0.0,-999.0,94,-99.99,,,0.00,0,weatherlink.com 1.10,2013-09-17 10:28:00,
2013-09-17 06:43:00,46.2,45.0,30.32,NE,54,0.0,-999.0,94,-99.99,,,0.00,0,weatherlink.com 1.10,2013-09-17 10:43:00,
2013-09-17 06:58:00,46.0,44.0,30.32,NE,47,0.0,-999.0,94,-99.99,,,0.00,0,weatherlink.com 1.10,2013-09-17 10:58:00,
2013-09-17 07:13:00,45.8,45.0,30.32,NE,48,2.0,-999.0,95,-99.99,,,0.00,0,weatherlink.com 1.10,2013-09-17 11:13:00,
2013-09-17 07:28:00,45.6,44.0,30.32,NNE,29,1.0,-999.0,95,-99.99,,,0.00,5,weatherlink.com 1.10,2013-09-17 11:28:00,
2013-09-17 07:43:00,45.5,44.0,30.32,ENE,64,2.0,-999.0,95,-99.99,,,0.00,14,weatherlink.com 1.10,2013-09-17 11:43:00,
2013-09-17 07:58:00,45.6,44.0,30.33,NNE,23,3.0,-999.0,95,-99.99,,,0.00,23,weatherlink.com 1.10,2013-09-17 11:58:00,
2013-09-17 08:13:00,46.1,45.0,30.33,NE,50,0.0,-999.0,96,-99.99,,,0.00,30,weatherlink.com 1.10,2013-09-17 12:13:00,
2013-09-17 08:28:00,46.7,45.0,30.33,NE,50,4.0,-999.0,95,-99.99,,,0.00,44,weatherlink.com 1.10,2013-09-17 12:28:00,
2013-09-17 08:43:00,47.6,46.0,30.33,ENE,67,4.0,-999.0,95,-99.99,,,0.00,56,weatherlink.com 1.10,2013-09-17 12:43:00,
2013-09-17 08:58:00,48.7,47.0,30.33,ESE,118,0.0,-999.0,95,-99.99,,,0.00,53,weatherlink.com 1.10,2013-09-17 12:58:00,
2013-09-17 09:13:00,50.0,48.0,30.33,ESE,122,0.0,-999.0,94,-99.99,,,0.00,63,weatherlink.com 1.10,2013-09-17 13:13:00,
2013-09-17 09:28:00,51.4,50.0,30.33,East,95,6.0,-999.0,93,-99.99,,,0.00,67,weatherlink.com 1.10,2013-09-17 13:28:00,
2013-09-17 09:43:00,52.6,50.0,30.33,ESE,111,0.0,-999.0,91,-99.99,,,0.00,69,weatherlink.com 1.10,2013-09-17 13:43:00,
2013-09-17 09:58:00,53.8,50.0,30.33,NE,50,1.0,-999.0,88,-99.99,,,0.00,79,weatherlink.com 1.10,2013-09-17 13:58:00,
2013-09-17 10:13:00,55.2,51.0,30.34,SE,141,5.0,-999.0,85,-99.99,,,0.00,432,weatherlink.com 1.10,2013-09-17 14:13:00,
2013-09-17 10:28:00,56.9,51.0,30.34,ENE,74,4.0,-999.0,80,-99.99,,,0.00,497,weatherlink.com 1.10,2013-09-17 14:28:00,
2013-09-17 10:43:00,58.2,51.0,30.33,SSE,158,5.0,-999.0,78,-99.99,,,0.00,526,weatherlink.com 1.10,2013-09-17 14:43:00,
2013-09-17 10:58:00,59.3,51.0,30.33,SE,140,7.0,-999.0,75,-99.99,,,0.00,494,weatherlink.com 1.10,2013-09-17 14:58:00,
2013-09-17 11:13:00,60.5,52.0,30.33,SSE,158,8.0,-999.0,74,-99.99,,,0.00,596,weatherlink.com 1.10,2013-09-17 15:13:00,
2013-09-17 11:28:00,61.7,52.0,30.32,SE,132,1.0,-999.0,70,-99.99,,,0.00,613,weatherlink.com 1.10,2013-09-17 15:28:00,
2013-09-17 11:43:00,62.7,52.0,30.32,ENE,61,9.0,-999.0,69,-99.99,,,0.00,564,weatherlink.com 1.10,2013-09-17 15:43:00,
2013-09-17 11:58:00,63.1,52.0,30.32,SSE,158,4.0,-999.0,67,-99.99,,,0.00,332,weatherlink.com 1.10,2013-09-17 15:58:00,
2013-09-17 12:13:00,63.6,52.0,30.31,ESE,110,1.0,-999.0,66,-99.99,,,0.00,563,weatherlink.com 1.10,2013-09-17 16:13:00,
2013-09-17 12:29:00,64.3,52.0,30.30,ENE,61,3.0,-999.0,64,-99.99,,,0.00,615,weatherlink.com 1.10,2013-09-17 16:29:00,
2013-09-17 12:43:00,65.3,52.0,30.30,SSE,159,7.0,-999.0,63,-99.99,,,0.00,773,weatherlink.com 1.10,2013-09-17 16:43:00,
2013-09-17 12:58:00,66.3,53.0,30.29,East,81,6.0,-999.0,62,-99.99,,,0.00,817,weatherlink.com 1.10,2013-09-17 16:58:00,
2013-09-17 13:13:00,67.7,53.0,30.28,SE,138,3.0,-999.0,60,-99.99,,,0.00,847,weatherlink.com 1.10,2013-09-17 17:13:00,
2013-09-17 13:28:00,68.0,54.0,30.28,ESE,102,4.0,-999.0,61,-99.99,,,0.00,840,weatherlink.com 1.10,2013-09-17 17:28:00,
2013-09-17 13:43:00,68.2,53.0,30.27,East,87,3.0,-999.0,59,-99.99,,,0.00,649,weatherlink.com 1.10,2013-09-17 17:43:00,
2013-09-17 13:58:00,68.4,53.0,30.26,ESE,122,3.0,-999.0,58,-99.99,,,0.00,492,weatherlink.com 1.10,2013-09-17 17:58:00,
2013-09-17 14:13:00,68.6,53.0,30.25,ENE,75,3.0,-999.0,58,-99.99,,,0.00,682,weatherlink.com 1.10,2013-09-17 18:13:00,
2013-09-17 14:28:00,69.6,54.0,30.24,South,177,3.0,-999.0,57,-99.99,,,0.00,791,weatherlink.com 1.10,2013-09-17 18:28:00,
2013-09-17 14:43:00,69.7,53.0,30.23,SE,143,6.0,-999.0,56,-99.99,,,0.00,636,weatherlink.com 1.10,2013-09-17 18:43:00,
2013-09-17 14:58:00,70.6,54.0,30.23,SSE,158,1.0,-999.0,55,-99.99,,,0.00,821,weatherlink.com 1.10,2013-09-17 18:58:00,
2013-09-17 15:13:00,70.9,53.0,30.22,East,81,0.0,-999.0,53,-99.99,,,0.00,561,weatherlink.com 1.10,2013-09-17 19:13:00,
2013-09-17 15:28:00,70.7,53.0,30.22,East,88,1.0,-999.0,54,-99.99,,,0.00,541,weatherlink.com 1.10,2013-09-17 19:28:00,
2013-09-17 15:43:00,71.1,53.0,30.21,East,93,2.0,-999.0,54,-99.99,,,0.00,436,weatherlink.com 1.10,2013-09-17 19:43:00,
2013-09-17 15:58:00,70.9,53.0,30.20,SE,138,5.0,-999.0,54,-99.99,,,0.00,425,weatherlink.com 1.10,2013-09-17 19:58:00,
2013-09-17 16:13:00,71.3,53.0,30.20,NNE,23,5.0,-999.0,52,-99.99,,,0.00,446,weatherlink.com 1.10,2013-09-17 20:13:00,
2013-09-17 16:28:00,71.2,53.0,30.20,East,94,2.0,-999.0,52,-99.99,,,0.00,443,weatherlink.com 1.10,2013-09-17 20:28:00,
2013-09-17 16:43:00,72.3,53.0,30.19,East,100,5.0,-999.0,51,-99.99,,,0.00,605,weatherlink.com 1.10,2013-09-17 20:43:00,
2013-09-17 16:58:00,71.7,53.0,30.18,SSE,166,6.0,-999.0,52,-99.99,,,0.00,366,weatherlink.com 1.10,2013-09-17 20:58:00,
2013-09-17 17:13:00,70.9,53.0,30.18,NE,48,6.0,-999.0,53,-99.99,,,0.00,246,weatherlink.com 1.10,2013-09-17 21:13:00,
2013-09-17 17:28:00,70.3,52.0,30.17,East,94,2.0,-999.0,53,-99.99,,,0.00,255,weatherlink.com 1.10,2013-09-17 21:28:00,
2013-09-17 17:43:00,70.5,52.0,30.17,East,90,0.0,-999.0,53,-99.99,,,0.00,359,weatherlink.com 1.10,2013-09-17 21:43:00,
2013-09-17 17:58:00,70.8,52.0,30.18,ENE,70,2.0,-999.0,52,-99.99,,,0.00,176,weatherlink.com 1.10,2013-09-17 21:58:00,
2013-09-17 18:13:00,70.3,52.0,30.17,East,82,1.0,-999.0,52,-99.99,,,0.00,163,weatherlink.com 1.10,2013-09-17 22:13:00,
2013-09-17 18:28:00,69.7,53.0,30.17,ENE,77,0.0,-999.0,55,-99.99,,,0.00,142,weatherlink.com 1.10,2013-09-17 22:28:00,
2013-09-17 18:43:00,69.3,52.0,30.17,NE,56,0.0,-999.0,55,-99.99,,,0.00,86,weatherlink.com 1.10,2013-09-17 22:43:00,
2013-09-17 18:58:00,68.9,51.0,30.17,NE,54,0.0,-999.0,54,-99.99,,,0.00,60,weatherlink.com 1.10,2013-09-17 22:58:00,
2013-09-17 19:13:00,68.0,53.0,30.17,NE,54,1.0,-999.0,59,-99.99,,,0.00,33,weatherlink.com 1.10,2013-09-17 23:13:00,
2013-09-17 19:28:00,66.6,52.0,30.16,ENE,64,1.0,-999.0,59,-99.99,,,0.00,18,weatherlink.com 1.10,2013-09-17 23:28:00,
2013-09-17 19:43:00,66.0,52.0,30.16,ENE,63,0.0,-999.0,61,-99.99,,,0.00,0,weatherlink.com 1.10,2013-09-17 23:43:00,
2013-09-17 19:58:00,64.4,52.0,30.15,ENE,65,0.0,-999.0,64,-99.99,,,0.00,0,weatherlink.com 1.10,2013-09-17 23:58:00,
2013-09-17 20:13:00,63.9,53.0,30.15,ENE,67,1.0,-999.0,67,-99.99,,,0.00,0,weatherlink.com 1.10,2013-09-18 00:13:00,
2013-09-17 20:28:00,62.6,55.0,30.15,ENE,67,0.0,-999.0,75,-99.99,,,0.00,0,weatherlink.com 1.10,2013-09-18 00:28:00,
2013-09-17 20:43:00,61.1,53.0,30.16,ENE,64,0.0,-999.0,74,-99.99,,,0.00,0,weatherlink.com 1.10,2013-09-18 00:43:00,
2013-09-17 20:58:00,59.9,53.0,30.16,ENE,64,0.0,-999.0,77,-99.99,,,0.00,0,weatherlink.com 1.10,2013-09-18 00:58:00,
2013-09-17 21:13:00,59.8,53.0,30.16,ENE,64,2.0,-999.0,77,-99.99,,,0.00,0,weatherlink.com 1.10,2013-09-18 01:13:00,
2013-09-17 21:28:00,59.2,52.0,30.15,NE,48,0.0,-999.0,76,-99.99,,,0.00,0,weatherlink.com 1.10,2013-09-18 01:28:00,
2013-09-17 21:43:00,59.9,50.0,30.15,NE,54,3.0,-999.0,70,-99.99,,,0.00,0,weatherlink.com 1.10,2013-09-18 01:43:00,
2013-09-17 21:58:00,60.4,50.0,30.15,East,83,2.0,-999.0,68,-99.99,,,0.00,0,weatherlink.com 1.10,2013-09-18 01:58:00,
2013-09-17 22:12:00,60.4,49.0,30.15,NE,48,1.0,-999.0,66,-99.99,,,0.00,0,weatherlink.com 1.10,2013-09-18 02:12:00,
2013-09-17 22:27:00,60.6,49.0,30.15,ENE,66,0.0,-999.0,66,-99.99,,,0.00,0,weatherlink.com 1.10,2013-09-18 02:27:00,
2013-09-17 22:42:00,59.8,49.0,30.15,ENE,69,0.0,-999.0,67,-99.99,,,0.00,0,weatherlink.com 1.10,2013-09-18 02:42:00,
2013-09-17 22:57:00,58.3,49.0,30.16,ENE,71,0.0,-999.0,72,-99.99,,,0.00,0,weatherlink.com 1.10,2013-09-18 02:57:00,
2013-09-17 23:12:00,57.8,49.0,30.15,ENE,70,0.0,-999.0,72,-99.99,,,0.00,0,weatherlink.com 1.10,2013-09-18 03:12:00,
2013-09-17 23:27:00,58.0,49.0,30.15,ENE,71,0.0,-999.0,71,-99.99,,,0.00,0,weatherlink.com 1.10,2013-09-18 03:27:00,
2013-09-17 23:42:00,58.0,49.0,30.15,ENE,71,0.0,-999.0,71,-99.99,,,0.00,0,weatherlink.com 1.10,2013-09-18 03:42:00,